Regional Weather Roundup
Issued by NWS

Home | Current Version | Previous Version | Text Only | Print | Product List | Glossary Off
Versions: 1 2 3 4 5 6 7 8 9 10 11 12 13 14 15 16 17 18 19 20 21 22 23 24 25 26 27 28 29 30 31 32 33 34 35 36 37 38 39 40 41 42 43 44 45 46 47 48 49 50

000
ASUS43 KFSD 011602
RWRSD

WEATHER ROUNDUP FOR SOUTH DAKOTA
NATIONAL WEATHER SERVICE SIOUX FALLS SD
1100 AM CDT MON SEP 01 2014

NOTE: "FAIR" INDICATES FEW OR NO CLOUDS BELOW 12,000 FEET WITH NO
SIGNIFICANT WEATHER AND/OR OBSTRUCTIONS TO VISIBILITY.


SDZ001>005-009-010-012>017-011700-
NORTHWEST AND NORTH CENTRAL SOUTH DAKOTA

CITY           SKY/WX    TMP DP  RH WIND       PRES   REMARKS
BUFFALO          N/A     65  49  56 NW13      29.84R
FAITH            N/A     67  51  56 W10       29.87S
MOBRIDGE       SUNNY     66  54  65 W8        29.80S
$$

SDZ012>016-024>037-041>051-057-063-072>074-011700-
SOUTHWEST AND SOUTH CENTRAL SOUTH DAKOTA

CITY           SKY/WX    TMP DP  RH WIND       PRES   REMARKS
RAPID CTY ARPT MOSUNNY   68  47  46 NW6       29.94R
PIERRE         SUNNY     67  56  67 W9        29.85R
CUSTER         PTSUNNY   60  42  51 W6        30.03R
ELLSWORTH AFB  PTSUNNY   66  47  51 VRB2      29.94R
PHILIP         MOSUNNY   67  55  65 SW12      29.89S
PINE RIDGE     SUNNY     66  51  58 W8        29.96S
WINNER         FAIR      69  54  58 W10       29.89R
$$

SDZ004>011-016>023-039-040-011700-
NORTHEAST SOUTH DAKOTA

CITY           SKY/WX    TMP DP  RH WIND       PRES   REMARKS
ABERDEEN       SUNNY     68  57  68 W6        29.79R
WATERTOWN      SUNNY     69  57  65 NW9       29.80R
SISSETON         N/A     72  57  59 N9        29.76R
$$

SDZ017-020-022-023-036>040-048>070-011700-
SOUTHEAST SOUTH DAKOTA

CITY           SKY/WX    TMP DP  RH WIND       PRES   REMARKS
SIOUX FALLS    MOSUNNY   71  63  75 W8        29.82R
HURON          SUNNY     70  56  61 N9        29.82R
CHAMBERLAIN    SUNNY     65  56  73 W8        29.88R
MITCHELL       SUNNY     69  60  73 W8        29.84R
YANKTON        MOSUNNY   70  63  78 W13       29.84R
$$

ABBREVIATIONS USED IN REMARKS
   TC - TEMPERATURE IN CELSIUS
  WCI - WIND CHILL INDEX
   HX - HEAT INDEX
  VSB - VISIBILITY



USA.gov is the U.S. government's official web portal to all federal, state and local government web resources and services.